Location: Beccas
(43.4309°N, 0.1528°E)
Time: 01:27:02
(UTC+00:00)

Cosmos 2082 - Pass Details

Date: 15 October 2021
Orbit: 835 x 853 km, 71.0° (Epoch: 02 December)

Event Time Altitude Azimuth Distance (km) Brightness Sun altitude
Rises 18:22:22 0° 336° (NNW) 3,395 7.2 -12.8°
Reaches altitude 10° 18:24:50 10° 338° (NNW) 2,456 6.4 -13.2°
Maximum altitude 18:30:28 75° 64° (ENE) 866 3.6 -14.3°
Drops below altitude 10° 18:36:04 10° 150° (SSE) 2,441 5.8 -15.3°
Enters shadow 18:38:28 - 152° (SSE) 3,364 6.5 -15.7°
